GW0064 Weather Reports


time (UTC)temp
F
wind
direction
speed
knots
gust
knots
rain 1hr
in
rain 24hr
in
rain mn
in
humidity
%
barometer
mb
20260906065500 0 71 0.9 4.3 0.00 0.67 0.00 1016.0
20260906064459 0 56 1.7 4.3 0.00 0.67 0.00 1016.0
20260906063500 0 49 2.6 6.1 0.00 0.67 0.00 1016.0
20260906062501 0 80 2.6 5.2 0.00 0.67 0.00 1015.9
20260906060459 0 57 0.9 2.6 0.00 0.67 0.00 1015.9
20260906060003 0 53 0.9 4.3 0.00 0.67 0.00 1015.9
20260906055459 0 66 1.7 6.1 0.00 0.67 0.00 1015.9
20260906055000 0 38 1.7 6.1 0.00 0.67 0.00 1015.8
20260906054000 0 13 2.6 6.1 0.00 0.67 0.00 1015.6
20260906053500 0 70 3.5 5.2 0.00 0.67 0.00 1015.6
20260906052959 0 55 2.6 5.2 0.00 0.67 0.00 1015.6
20260906052500 0 47 1.7 5.2 0.00 0.67 0.00 1015.6
20260906052000 0 49 2.6 5.2 0.00 0.67 0.00 1015.7
20260906051459 0 51 1.7 5.2 0.00 0.67 0.00 1015.6
20260906051001 0 50 1.7 5.2 0.00 0.67 0.00 1015.6
20260906050500 0 46 2.6 4.3 0.00 0.67 0.00 1015.6
20260906050007 0 62 2.6 3.5 0.00 0.67 0.00 1015.6
20260906045502 0 66 0.9 4.3 0.00 0.67 0.00 1015.6
20260906045002 0 45 1.7 4.3 0.00 0.67 0.00 1015.5
20260906044503 0 59 2.6 4.3 0.00 0.67 0.00 1015.4
20260906044002 0 44 1.7 4.3 0.00 0.67 0.00 1015.3
20260906043502 0 74 2.6 5.2 0.00 0.67 0.00 1015.3
20260906043004 0 64 1.7 6.1 0.00 0.67 0.00 1015.4
20260906042503 0 60 1.7 7.0 0.00 0.67 0.00 1015.3
20260906042002 0 48 3.5 7.0 0.00 0.67 0.00 1015.3
20260906041002 0 54 3.5 7.8 0.00 0.67 0.00 1015.3
20260906040502 0 65 3.5 7.8 0.00 0.67 0.00 1015.3
20260906040006 0 53 2.6 6.1 0.00 0.67 0.00 1015.3
20260906035504 0 83 1.7 6.1 0.00 0.67 0.67 1015.4
20260906035003 0 50 2.6 6.1 0.00 0.67 0.67 1015.4
20260906034501 0 49 1.7 7.0 0.00 0.67 0.67 1015.4
20260906034002 0 49 2.6 7.0 0.00 0.67 0.67 1015.4
20260906033504 0 80 3.5 8.7 0.00 0.67 0.67 1015.4
20260906033004 0 34 4.3 8.7 0.00 0.67 0.67 1015.4
20260906032502 0 39 2.6 5.2 0.00 0.67 0.67 1015.4
20260906032002 0 46 2.6 7.0 0.00 0.67 0.67 1015.4
20260906031502 0 41 3.5 7.0 0.00 0.67 0.67 1015.4
20260906031004 0 50 3.5 7.8 0.00 0.67 0.67 90 1015.3
20260906030502 0 75 3.5 7.8 0.00 0.67 0.67 1015.1
20260906025504 73 78 2.6 7.8 0.00 0.67 0.67 90 1014.9
20260906025003 73 73 5.2 7.8 0.00 0.67 0.67 90 1014.9
20260906024502 73 76 3.5 7.8 0.00 0.67 0.67 90 1014.8
20260906024002 74 45 2.6 8.7 0.00 0.67 0.67 90 1014.8
20260906023503 74 61 3.5 9.6 0.00 0.67 0.67 90 1014.8
20260906023002 74 70 4.3 9.6 0.00 0.67 0.67 90 1014.7
20260906022004 0 52 3.5 8.7 0.00 0.67 0.67 90 1014.7
20260906021502 74 81 5.2 10.4 0.00 0.67 0.67 90 1014.6
20260906021002 75 59 6.1 12.2 0.00 0.67 0.67 1014.5
20260906020503 75 79 5.2 12.2 0.00 0.67 0.67 90 1014.5
20260906020006 74 84 5.2 7.8 0.00 0.67 0.67 91 1014.6
20260906015502 74 34 4.3 9.6 0.00 0.67 0.67 91 1014.5
20260906015005 74 70 2.6 7.8 0.00 0.67 0.67 92 1014.3
20260906014502 74 86 3.5 7.8 0.00 0.67 0.67 92 1014.2
20260906014003 74 69 3.5 5.2 0.00 0.67 0.67 1014.1
20260906013504 0 78 2.6 7.0 0.00 0.67 0.67 1014.1
20260906013002 0 76 3.5 7.0 0.00 0.67 0.67 1 1014.0
20260906012502 0 59 3.5 6.1 0.00 0.67 0.67 1 1014.0
20260906012003 0 70 3.5 8.7 0.00 0.67 0.67 1013.9
20260906011503 0 78 3.5 9.6 0.00 0.67 0.67 1013.7
20260906011003 0 75 4.3 9.6 0.00 0.67 0.67 1 1013.6
20260906010503 0 69 3.5 7.0 0.00 0.67 0.67 1013.4
20260906010006 0 62 3.5 7.0 0.00 0.67 0.67 1013.4
20260906005503 0 73 2.6 6.1 0.00 0.67 0.67 1013.3
20260906005003 0 49 3.5 7.0 0.00 0.67 0.67 1013.2
20260906004503 75 331 3.5 6.1 0.00 0.67 0.67 1013.2
20260906004002 75 32 0.0 0.9 0.00 0.67 0.67 1013.1
20260906003502 0 32 0.0 0.9 0.00 0.67 0.67 1 1013.1
20260906003003 0 32 0.0 0.9 0.00 0.67 0.67 90 1013.0
20260906002503 75 32 0.0 0.9 0.00 0.67 0.67 90 1012.9
20260906002005 75 32 0.0 0.9 0.00 0.67 0.67 91 1012.7
20260906001502 75 32 0.0 0.9 0.00 0.67 0.67 91 1012.7
20260906001002 75 32 0.0 0.9 0.00 0.67 0.67 91 1012.7
20260906000502 76 32 0.0 0.0 0.00 0.67 0.67 91 1012.7
20260905235503 76 32 0.0 0.0 0.00 0.67 0.67 91 1013.0
20260905235003 76 32 0.0 0.0 0.00 0.67 0.67 91 1013.0
20260905234005 77 32 0.0 0.9 0.00 0.67 0.67 91 1013.0
20260905233503 78 32 0.0 0.0 0.00 0.67 0.67 90 1012.9
20260905233002 77 32 0.0 0.0 0.00 0.67 0.67 90 1012.8
20260905232502 77 32 0.0 0.0 0.00 0.67 0.67 90 1012.8
20260905232003 77 32 0.0 0.0 0.00 0.67 0.67 90 1012.8
20260905231502 76 32 0.0 0.9 0.00 0.67 0.67 90 1012.9
20260905231002 76 32 0.0 2.6 0.04 0.67 0.67 90 1012.8
20260905230502 75 32 0.9 2.6 0.04 0.67 0.67 90 1012.6
20260905225501 75 32 0.0 2.6 0.04 0.67 0.67 90 1012.5
20260905225002 75 32 1.7 2.6 0.22 0.67 0.67 90 1012.6
20260905224501 74 32 0.9 2.6 0.49 0.67 0.67 90 1012.6
20260905224006 74 32 0.0 1.7 0.62 0.67 0.67 90 1012.6
20260905223502 73 156 0.0 0.9 0.67 0.67 0.67 90 1012.5
20260905223002 72 156 0.0 2.6 0.67 0.67 0.67 90 1012.5
20260905222503 71 160 0.9 2.6 0.67 0.67 0.67 90 1012.7
20260905222001 71 234 0.0 1.7 0.67 0.67 0.67 90 1013.0
20260905221502 70 156 0.0 8.7 0.67 0.67 0.67 91 1013.0
20260905221003 70 71 6.1 8.7 0.63 0.63 0.63 91 1012.8
20260905220502 69 92 2.6 7.8 0.63 0.63 0.63 92 1012.5
20260905220005 69 264 1.7 29.5 0.63 0.63 0.63 92 1012.4
20260905215502 70 259 5.2 35.6 0.61 0.61 0.61 90 1013.2
20260905214001 85 44 7.8 14.8 0.03 0.03 0.03 65 1012.7
20260905213501 88 63 7.8 14.8 0.00 0.00 0.00 62 1012.4
20260905213001 89 337 3.5 8.7 0.00 0.00 0.00 65 1012.0
20260905212504 89 303 6.1 8.7 0.00 0.00 0.00 65 1011.8
20260905212002 88 275 5.2 9.6 0.00 0.00 0.00 66 1012.0
20260905211501 88 294 6.1 9.6 0.00 0.00 0.00 63 1012.3
20260905211001 88 321 5.2 7.0 0.00 0.00 0.00 65 1012.2
20260905210501 88 286 4.3 8.7 0.00 0.00 0.00 65 1012.1
20260905210005 89 290 4.3 8.7 0.00 0.00 0.00 67 1012.0
20260905205502 89 295 3.5 7.0 0.00 0.00 0.00 65 1012.0
20260905205001 89 270 5.2 7.0 0.00 0.00 0.00 65 1012.1
20260905204502 89 282 4.3 7.0 0.00 0.00 0.00 66 1012.2
20260905204002 89 328 0.9 7.8 0.00 0.00 0.00 66 1012.2
20260905203501 88 289 4.3 7.8 0.00 0.00 0.00 67 1012.3
20260905203001 88 283 5.2 7.0 0.00 0.00 0.00 65 1012.3
20260905202501 88 290 3.5 6.1 0.00 0.00 0.00 67 1012.4
20260905202001 88 294 4.3 6.1 0.00 0.00 0.00 67 1012.5
20260905201502 88 271 3.5 6.1 0.00 0.00 0.00 66 1012.6
20260905201003 89 296 3.5 5.2 0.00 0.00 0.00 65 1012.5
20260905200501 89 349 1.7 8.7 0.00 0.00 0.00 66 1012.6
20260905200003 89 290 1.7 8.7 0.00 0.00 0.00 65 1012.8
20260905195502 89 302 4.3 7.0 0.00 0.00 0.00 65 1012.8
20260905195004 88 344 3.5 7.8 0.00 0.00 0.00 67 1012.8
20260905194501 88 45 1.7 7.8 0.00 0.00 0.00 69 1012.7
20260905194001 87 286 5.2 7.8 0.00 0.00 0.00 67 1012.8
20260905193502 87 297 3.5 7.0 0.00 0.00 0.00 68 1013.0
20260905193001 88 281 4.3 7.0 0.00 0.00 0.00 66 1013.0
20260905192502 88 23 2.6 6.1 0.00 0.00 0.00 67 1013.1
20260905192002 88 302 2.6 5.2 0.00 0.00 0.00 65 1013.0
20260905191501 88 288 2.6 9.6 0.00 0.00 0.00 65 1013.0
20260905191002 88 281 6.1 9.6 0.00 0.00 0.00 65 1013.1
20260905190004 89 302 3.5 8.7 0.00 0.00 0.00 65 1013.2
20260905185002 89 280 6.1 9.6 0.00 0.00 0.00 63 1013.3
20260905184501 89 287 6.1 8.7 0.00 0.00 0.00 63 1013.4
20260905184001 88 251 3.5 10.4 0.00 0.00 0.00 62 1013.4
20260905183501 88 263 5.2 10.4 0.00 0.00 0.00 62 1013.5
20260905183002 88 272 4.3 9.6 0.00 0.00 0.00 63 1013.6
20260905182501 88 222 5.2 8.7 0.00 0.00 0.00 62 1013.5
20260905182002 87 268 5.2 10.4 0.00 0.00 0.00 62 1013.7
20260905180005 87 241 6.1 10.4 0.00 0.00 0.00 61 1013.8
20260905175502 87 220 7.0 8.7 0.00 0.00 0.00 61 1013.8
20260905175002 87 303 5.2 8.7 0.00 0.00 0.00 62 1013.8
20260905174502 86 232 5.2 8.7 0.00 0.00 0.00 63 1013.9
20260905174001 86 256 5.2 7.8 0.00 0.00 0.00 62 1013.9
20260905173501 86 167 2.6 8.7 0.00 0.00 0.00 64 1014.1
20260905173001 86 255 6.1 8.7 0.00 0.00 0.00 61 1014.2
20260905172503 85 238 5.2 7.0 0.00 0.00 0.00 64 1014.2
20260905172004 84 266 3.5 7.8 0.00 0.00 0.00 66 1014.3
20260905171501 84 293 4.3 8.7 0.00 0.00 0.00 65 1014.4
20260905171001 84 234 5.2 8.7 0.00 0.00 0.00 64 1014.5
20260905170501 83 193 4.3 7.8 0.00 0.00 0.00 65 1014.6
20260905170004 83 206 5.2 7.8 0.00 0.00 0.00 64 1014.7
20260905165501 83 162 4.3 7.8 0.00 0.00 0.00 64 1014.8
20260905165003 83 136 5.2 8.7 0.00 0.00 0.00 64 1014.8
20260905164501 83 210 5.2 8.7 0.00 0.00 0.00 65 1014.8
20260905164002 83 220 4.3 8.7 0.00 0.00 0.00 64 1014.9
20260905163501 83 229 4.3 8.7 0.00 0.00 0.00 65 1014.9
20260905163001 82 165 4.3 9.6 0.00 0.00 0.00 66 1014.9
20260905162501 82 185 5.2 9.6 0.00 0.00 0.00 67 1014.9
20260905162003 82 221 4.3 11.3 0.00 0.00 0.00 67 1014.9
20260905161502 82 204 5.2 11.3 0.00 0.00 0.00 66 1014.9
20260905161001 82 163 4.3 10.4 0.00 0.00 0.00 68 1014.9
20260905160501 82 256 6.1 10.4 0.00 0.00 0.00 67 1014.8
20260905160004 82 240 6.1 9.6 0.00 0.00 0.00 67 1014.8
20260905155503 82 236 4.3 9.6 0.00 0.00 0.00 67 1014.8
20260905155001 82 182 5.2 8.7 0.00 0.00 0.00 66 1014.7
20260905154501 82 196 4.3 10.4 0.00 0.00 0.00 67 1014.8
20260905154002 81 172 5.2 12.2 0.00 0.00 0.00 68 1014.6
20260905153501 81 184 6.1 12.2 0.00 0.00 0.00 69 1014.7
20260905152501 80 148 4.3 11.3 0.00 0.00 0.00 70 1014.7
20260905152003 79 241 5.2 8.7 0.00 0.00 0.00 69 1014.7
20260905151502 79 197 5.2 12.2 0.00 0.00 0.00 70 1014.8
20260905151001 79 238 7.0 12.2 0.00 0.00 0.00 70 1014.9
20260905150503 79 237 7.8 10.4 0.00 0.00 0.00 70 1014.9
20260905150004 79 133 5.2 11.3 0.00 0.00 0.00 71 1014.9
20260905145001 78 186 7.0 11.3 0.00 0.00 0.00 72 1014.7
20260905144501 78 166 6.1 9.6 0.00 0.00 0.00 73 1014.8
20260905144002 77 196 5.2 13.0 0.00 0.00 0.00 75 1014.8
20260905143502 77 216 7.0 13.0 0.00 0.00 0.00 75 1014.7
20260905143001 76 129 8.7 12.2 0.00 0.00 0.00 75 1014.7
20260905142501 76 168 4.3 12.2 0.00 0.00 0.00 75 1014.6
20260905142005 76 172 7.8 13.0 0.00 0.00 0.00 75 1014.7
20260905141505 76 137 8.7 13.0 0.00 0.00 0.00 76 1014.6
20260905141002 76 169 4.3 13.9 0.00 0.00 0.00 77 1014.6
20260905140004 75 162 7.0 12.2 0.00 0.00 0.00 77 1014.7
20260905135001 75 140 7.8 13.0 0.00 0.00 0.00 78 1014.7
20260905134500 75 160 4.3 10.4 0.00 0.00 0.00 79 1014.6
20260905134002 74 183 5.2 10.4 0.00 0.00 0.00 79 1014.6
20260905133502 74 162 7.0 12.2 0.00 0.00 0.00 79 1014.8
20260905133001 74 179 7.0 11.3 0.00 0.00 0.00 79 1014.8
20260905132501 74 191 4.3 9.6 0.00 0.00 0.00 81 1014.9
20260905132002 73 183 6.1 10.4 0.00 0.00 0.00 80 1015.0
20260905131503 73 129 5.2 10.4 0.00 0.00 0.00 81 1014.9
20260905131001 73 139 6.1 7.8 0.00 0.00 0.00 81 1014.9
20260905130502 73 160 4.3 10.4 0.00 0.00 0.00 82 1014.9
20260905130005 72 215 7.0 10.4 0.00 0.00 0.00 82 1015.0
20260905125501 72 169 6.1 8.7 0.00 0.00 0.00 83 1015.0
20260905125001 72 174 6.1 8.7 0.00 0.00 0.00 83 1015.1
20260905124500 72 136 1.7 8.7 0.00 0.00 0.00 84 1015.0
20260905124002 71 169 5.2 8.7 0.00 0.00 0.00 84 1014.9
20260905123501 71 150 2.6 6.1 0.00 0.00 0.00 85 1015.0
20260905123002 71 113 1.7 5.2 0.00 0.00 0.00 86 1014.9
20260905122501 71 153 2.6 5.2 0.00 0.00 0.00 85 1014.9
20260905122002 70 131 3.5 6.1 0.00 0.00 0.00 86 1015.0
20260905121501 70 112 3.5 6.1 0.00 0.00 0.00 86 1014.9
20260905121001 70 136 3.5 5.2 0.00 0.00 0.00 87 1014.7
20260905120501 70 135 2.6 7.0 0.00 0.00 0.00 87 1014.8
20260905115502 70 168 2.6 7.0 0.00 0.00 0.00 87 1014.6
20260905115001 70 130 3.5 8.7 0.00 0.00 0.00 87 1014.6
20260905114501 70 134 4.3 8.7 0.00 0.00 0.00 87 1014.7
20260905113502 70 134 5.2 8.7 0.00 0.00 0.00 86 1014.7
20260905113001 70 142 5.2 8.7 0.00 0.00 0.00 86 1014.8
20260905112501 70 147 5.2 8.7 0.00 0.00 0.00 86 1014.7
20260905112003 70 138 3.5 7.8 0.00 0.00 0.00 86 1014.7
20260905111512 70 138 4.3 7.8 0.00 0.00 0.00 86 1014.7
20260905111001 70 123 2.6 7.8 0.00 0.00 0.00 86 1014.7
20260905110501 70 144 3.5 7.0 0.00 0.00 0.00 86 1014.8
20260905110005 70 65 1.7 9.6 0.00 0.00 0.00 86 1014.8
20260905105001 70 151 5.2 9.6 0.00 0.00 0.00 86 1014.6
20260905104501 70 121 4.3 9.6 0.00 0.00 0.00 86 1014.8
20260905104001 71 137 2.6 7.8 0.00 0.00 0.00 85 1014.8
20260905103001 71 125 5.2 8.7 0.00 0.00 0.00 85 1014.7
20260905102502 71 128 4.3 7.8 0.00 0.00 0.00 85 1014.7
20260905102001 71 96 3.5 13.9 0.00 0.00 0.00 84 1014.8
20260905101502 72 64 3.5 13.9 0.00 0.00 0.00 83 1014.8
20260905101002 73 123 7.8 13.9 0.00 0.00 0.00 83 1014.8
20260905095502 75 153 0.0 0.9 0.00 0.00 0.00 90 1013.7
20260905095000 75 154 0.9 0.9 0.00 0.00 0.00 90 1013.7
20260905094500 75 155 0.0 0.9 0.00 0.00 0.00 90 1013.7
20260905094003 74 155 0.0 0.9 0.00 0.00 0.00 90 1013.7
20260905093500 74 219 0.0 0.0 0.00 0.00 0.00 90 1013.7
20260905093000 74 219 0.0 0.0 0.00 0.00 0.00 90 1013.8
20260905092000 75 219 0.0 0.0 0.00 0.00 0.00 89 1013.7
20260905091500 75 219 0.0 0.9 0.00 0.00 0.00 89 1013.7
20260905091002 75 219 0.0 0.9 0.00 0.00 0.00 89 1013.6
20260905090500 75 219 0.0 0.0 0.00 0.00 0.00 88 1013.5
20260905090003 76 219 0.0 0.9 0.00 0.00 0.00 88 1013.6
20260905085503 76 219 0.0 0.9 0.00 0.00 0.00 88 1013.5
20260905085001 76 219 0.0 0.9 0.00 0.00 0.00 88 1013.5
20260905084500 76 219 0.0 0.9 0.00 0.00 0.00 88 1013.5
20260905084001 76 198 0.0 0.0 0.00 0.00 0.00 88 1013.5
20260905083500 76 198 0.0 0.9 0.00 0.00 0.00 88 1013.7
20260905083001 76 198 0.0 0.9 0.00 0.00 0.00 88 1013.6
20260905082500 76 198 0.0 0.9 0.00 0.00 0.00 88 1013.5
20260905082000 76 198 0.0 0.9 0.00 0.00 0.00 88 1013.5
20260905081500 76 261 0.0 0.0 0.00 0.00 0.00 87 1013.5
20260905081001 77 261 0.0 0.9 0.00 0.00 0.00 87 1013.5
20260905080500 77 261 0.0 0.9 0.00 0.00 0.00 87 1013.4
20260905080003 77 261 0.0 0.9 0.00 0.00 0.00 87 1013.4
20260905075000 77 262 0.0 0.0 0.00 0.00 0.00 87 1013.4
20260905074500 77 262 0.0 0.9 0.00 0.00 0.00 87 1013.4
20260905074000 77 262 0.0 0.0 0.00 0.00 0.00 87 1013.3
20260905073000 78 262 0.9 1.7 0.00 0.00 0.00 85 1013.1
20260905072000 78 252 0.9 2.6 0.00 0.00 0.00 85 1013.1
20260905071500 78 259 0.9 1.7 0.00 0.00 0.00 85 1013.0
20260905071000 78 236 0.0 4.3 0.00 0.00 0.00 85 1012.9
20260905070501 78 226 1.7 4.3 0.00 0.00 0.00 86 1012.8
20260905070003 78 226 1.7 3.5 0.00 0.00 0.00 86 1012.5